Jefferson, NC

11:08 PM EDT on October 15, 2019 (GMT -0400)
Ashe County

Weather History for KGEV - September, 2019

Change the Weather History Date:

Sunday, September 22, 2019

  Actual Average Record
Temperature  
Mean Temperature 67 °F -  
Max Temperature 78 °F 71 °F 84 °F (1970)
Min Temperature 56 °F 49 °F 36 °F (1991)
Cooling Degree Days 2    
Growing Degree Days 17 (Base 50)    
Moisture  
Dew Point 58 °F    
Average Humidity 75    
Maximum Humidity 99    
Minimum Humidity 46    
Precipitation  
Precipitation 0.00 in - - ()
Sea Level Pressure  
Sea Level Pressure 30.29 in    
Wind  
Wind Speed 1 mph ()    
Max Wind Speed 7 mph    
Max Gust Speed -    
Visibility 9.6 miles    
Events      
Averages and records for this station are not official NWS values.
T = Trace of Precipitation, MM = Missing Value Source: Averaged Metar Reports

Daily Weather History Graph

Daily Weather History Graph

Search for Another Location

Airport or City:

Astronomy

Sep. 22, 2019 Rise Set
Actual Time 7:13 AM EDT 7:22 PM EDT
Civil Twilight 6:47 AM EDT 7:48 PM EDT
Nautical Twilight 6:17 AM EDT 8:18 PM EDT
Astronomical Twilight 5:47 AM EDT 8:49 PM EDT
Moon 12:11 AM EDT (9/22) 3:06 PM EDT (9/22)
Length of Visible Light 13h 00m
Length of Day
12h 09m
Last Quarter, 44% of the Moon is Illuminated
Sep 22
Last Quarter
Sep 28
New
Oct 5
First Quarter
Oct 13
Full
Oct 21
Last Quarter

Hourly Weather History & Observations

Time (EDT) Temp. Dew Point Humidity Pressure Visibility Wind Dir Wind Speed Gust Speed Precip Events Conditions
12:15 AM 61.5 °F 60.1 °F 95% 30.35 in 10.0 mi Calm Calm - N/A   Clear
12:35 AM 63.0 °F 59.7 °F 89% 30.35 in 10.0 mi Calm Calm - N/A   Clear
12:55 AM 61.0 °F 59.2 °F 94% 30.35 in 10.0 mi Calm Calm - N/A   Clear
1:15 AM 59.5 °F 59.2 °F 99% 30.34 in 7.0 mi Calm Calm - N/A   Clear
1:35 AM 59.9 °F 59.0 °F 97% 30.34 in 10.0 mi Calm Calm - N/A   Clear
1:55 AM 60.8 °F 58.5 °F 92% 30.34 in 10.0 mi Calm Calm - N/A   Clear
2:15 AM 60.3 °F 59.0 °F 96% 30.33 in 10.0 mi WSW 3.5 mph - N/A   Clear
2:35 AM 59.9 °F 58.6 °F 96% 30.33 in 10.0 mi WSW 3.5 mph - N/A   Clear
2:55 AM 59.7 °F 58.1 °F 94% 30.32 in 10.0 mi WSW 3.5 mph - N/A   Clear
3:15 AM 59.2 °F 57.6 °F 94% 30.32 in 10.0 mi Calm Calm - N/A   Clear
3:35 AM 58.1 °F 57.2 °F 97% 30.31 in 10.0 mi Calm Calm - N/A   Clear
3:55 AM 57.9 °F 57.2 °F 97% 30.31 in 7.0 mi Calm Calm - N/A   Clear
4:15 AM 58.5 °F 57.9 °F 98% 30.30 in 10.0 mi Calm Calm - N/A   Clear
4:35 AM 56.8 °F 56.7 °F 99% 30.31 in 3.0 mi Calm Calm - N/A   Clear
5:15 AM 57.6 °F 57.2 °F 99% 30.31 in 7.0 mi Calm Calm - N/A   Clear
5:35 AM 57.6 °F 57.2 °F 99% 30.31 in 7.0 mi Calm Calm - N/A   Clear
5:55 AM 57.7 °F 57.4 °F 99% 30.31 in 10.0 mi Calm Calm - N/A   Clear
6:15 AM 58.5 °F 57.6 °F 97% 30.32 in 10.0 mi Calm Calm - N/A   Clear
6:35 AM 58.1 °F 57.2 °F 97% 30.32 in 10.0 mi Calm Calm - N/A   Clear
6:55 AM 56.7 °F 56.5 °F 99% 30.32 in 7.0 mi Calm Calm - N/A   Clear
7:15 AM 57.4 °F 56.8 °F 98% 30.33 in 10.0 mi Calm Calm - N/A   Clear
7:35 AM 58.6 °F 57.6 °F 96% 30.34 in 10.0 mi Calm Calm - N/A   Clear
7:55 AM 58.5 °F 57.7 °F 97% 30.34 in 7.0 mi Calm Calm - N/A   Clear
8:15 AM 58.5 °F 58.1 °F 99% 30.34 in 5.0 mi Calm Calm - N/A   Clear
8:35 AM 60.3 °F 59.7 °F 98% 30.34 in 10.0 mi Calm Calm - N/A   Clear
8:55 AM 60.4 °F 59.0 °F 95% 30.34 in 10.0 mi Calm Calm - N/A   Clear
9:15 AM 62.4 °F 59.4 °F 90% 30.34 in 10.0 mi Calm Calm - N/A   Clear
9:35 AM 63.7 °F 60.4 °F 89% 30.35 in 10.0 mi Calm Calm - N/A   Clear
9:55 AM 66.6 °F 62.1 °F 85% 30.34 in 10.0 mi Calm Calm - N/A   Clear
10:15 AM 68.4 °F 62.4 °F 81% 30.34 in 10.0 mi Calm Calm - N/A   Clear
10:35 AM 70.5 °F 63.1 °F 77% 30.34 in 10.0 mi Calm Calm - N/A   Clear
10:55 AM 72.7 °F 63.1 °F 72% 30.33 in 10.0 mi Calm Calm - N/A   Clear
11:15 AM 72.7 °F 62.1 °F 69% 30.33 in 10.0 mi WSW 3.5 mph - N/A   Clear
11:35 AM 74.3 °F 60.1 °F 61% 30.33 in 10.0 mi WSW 3.5 mph - N/A   Clear
11:55 AM 73.9 °F 58.8 °F 59% 30.32 in 10.0 mi WSW 4.6 mph - N/A   Clear
12:15 PM 74.7 °F 58.1 °F 56% 30.31 in 10.0 mi WSW 3.5 mph - N/A   Clear
12:35 PM 75.7 °F 57.9 °F 54% 30.30 in 10.0 mi WSW 5.8 mph - N/A   Scattered Clouds
12:55 PM 77.9 °F 59.2 °F 52% 30.29 in 10.0 mi Calm Calm - N/A   Scattered Clouds
1:15 PM 77.4 °F 57.9 °F 51% 30.29 in 10.0 mi WSW 5.8 mph - N/A   Scattered Clouds
1:35 PM 77.9 °F 57.7 °F 50% 30.28 in 10.0 mi Calm Calm - N/A   Scattered Clouds
1:55 PM 75.6 °F 56.8 °F 52% 30.27 in 10.0 mi WSW 4.6 mph - N/A   Scattered Clouds
2:15 PM 77.7 °F 57.6 °F 50% 30.26 in 10.0 mi WSW 4.6 mph - N/A   Scattered Clouds
2:35 PM 78.1 °F 56.5 °F 47% 30.26 in 10.0 mi WSW 6.9 mph - N/A   Scattered Clouds
2:55 PM 77.5 °F 55.6 °F 47% 30.25 in 10.0 mi WSW 5.8 mph - N/A   Clear
3:15 PM 77.7 °F 55.6 °F 46% 30.25 in 10.0 mi WSW 3.5 mph - N/A   Clear
3:35 PM 77.4 °F 55.6 °F 47% 30.24 in 10.0 mi WSW 5.8 mph - N/A   Clear
3:55 PM 77.2 °F 55.9 °F 48% 30.24 in 10.0 mi WSW 4.6 mph - N/A   Clear
4:15 PM 77.2 °F 55.8 °F 47% 30.24 in 10.0 mi WSW 4.6 mph - N/A   Clear
4:55 PM 76.1 °F 56.5 °F 50% 30.23 in 10.0 mi WSW 5.8 mph - N/A   Clear
5:35 PM 74.7 °F 57.0 °F 54% 30.23 in 10.0 mi WSW 3.5 mph - N/A   Clear
5:55 PM 74.1 °F 56.1 °F 53% 30.23 in 10.0 mi WSW 3.5 mph - N/A   Clear
6:15 PM 73.2 °F 55.9 °F 55% 30.23 in 10.0 mi Calm Calm - N/A   Clear
6:35 PM 72.5 °F 56.3 °F 57% 30.23 in 10.0 mi Calm Calm - N/A   Clear
6:55 PM 71.6 °F 57.4 °F 61% 30.23 in 10.0 mi Calm Calm - N/A   Clear
7:15 PM 71.8 °F 57.2 °F 60% 30.23 in 10.0 mi Calm Calm - N/A   Clear
7:35 PM 71.1 °F 57.2 °F 61% 30.23 in 10.0 mi Calm Calm - N/A   Clear
7:55 PM 69.8 °F 57.4 °F 65% 30.23 in 10.0 mi Calm Calm - N/A   Clear
8:15 PM 69.8 °F 56.7 °F 63% 30.23 in 10.0 mi Calm Calm - N/A   Clear
8:35 PM 68.7 °F 56.8 °F 66% 30.23 in 10.0 mi Calm Calm - N/A   Clear
8:55 PM 67.8 °F 56.8 °F 68% 30.24 in 10.0 mi Calm Calm - N/A   Clear
9:15 PM 67.6 °F 57.2 °F 69% 30.23 in 10.0 mi Calm Calm - N/A   Clear
9:35 PM 67.6 °F 57.0 °F 69% 30.23 in 10.0 mi WSW 4.6 mph - N/A   Clear
9:55 PM 65.8 °F 57.2 °F 74% 30.24 in 10.0 mi Calm Calm - N/A   Clear
10:15 PM 66.6 °F 57.2 °F 72% 30.23 in 10.0 mi Calm Calm - N/A   Clear
10:35 PM 65.7 °F 57.2 °F 74% 30.24 in 10.0 mi Calm Calm - N/A   Clear
10:55 PM 65.8 °F 57.2 °F 74% 30.24 in 10.0 mi Calm Calm - N/A   Clear
11:15 PM 66.4 °F 56.7 °F 71% 30.24 in 10.0 mi WSW 4.6 mph - N/A   Clear
11:55 PM 67.1 °F 55.6 °F 66% 30.23 in 10.0 mi WSW 6.9 mph - N/A   Clear